Date String (YYYY-MM-DD hh:mm:ss) UTC,Instrument flags,Ambient pressure (hPa),Sample flow (lpm),Bypass flow (lpm),Sample temperature (°C),Ambient temperature (°C),ASC tube jacket temperature (°C),LED temperature (°C),Box temperature (°C),Sample RH (%),Span deviation,Mass concentration (μg/m³),Mass concentration (μg/m³),Mass concentration (μg/m³)
DateTimeUTC,F1_M11,P_M11,Q1_M11,Q2_M11,T1_M11,T2_M11,T3_M11,T4_M11,T5_M11,U1_M11,ZSPAN_M11,X0_M11,X2_M11,X1_M11
2021-10-17 00:00:00,,0833.2,5.00,0.00,30.0,29.0,00.0,39.0,31.9,09.5,0000.0,0015.85,0005.37,0004.31
2021-10-17 00:01:00,,0833.2,5.00,0.00,30.1,29.1,00.0,39.0,32.0,09.5,0000.0,0015.72,0005.41,0004.35
2021-10-17 00:02:00,,0833.1,5.01,0.00,30.1,29.2,00.0,39.0,32.0,09.4,0000.0,0016.59,0005.46,0004.40
2021-10-17 00:03:00,,0833.1,5.01,0.00,30.2,29.2,00.0,39.1,32.0,09.4,0000.0,0017.43,0005.54,0004.44
2021-10-17 00:04:00,,0833.2,4.99,0.00,30.2,29.3,00.0,39.1,32.1,09.4,0000.0,0017.56,0005.57,0004.48
2021-10-17 00:05:00,,0833.1,5.00,0.00,30.2,29.3,00.0,39.1,32.1,09.3,0000.0,0017.52,0005.59,0004.52
2021-10-17 00:06:00,,0833.2,5.01,0.00,30.3,29.4,00.0,39.1,32.1,09.3,0000.0,0016.77,0005.57,0004.53
2021-10-17 00:07:00,,0833.2,4.99,0.00,30.3,29.5,00.0,39.2,32.2,09.3,0000.0,0015.94,0005.59,0004.56
2021-10-17 00:08:00,,0833.2,5.01,0.00,30.3,29.5,00.0,39.2,32.2,09.3,0000.0,0015.10,0005.56,0004.58
2021-10-17 00:09:00,,0833.2,5.01,0.00,30.4,29.3,00.0,39.2,32.1,09.2,0000.0,0013.89,0005.53,0004.62
2021-10-17 00:10:00,,0833.2,5.00,0.00,30.3,27.2,00.0,39.2,31.6,09.3,0000.0,0013.27,0005.55,0004.65
2021-10-17 00:11:00,,0833.1,5.00,0.00,30.0,25.5,00.0,39.1,31.1,09.4,0000.0,0013.29,0005.58,0004.68
2021-10-17 00:12:00,,0833.2,5.01,0.00,29.9,25.6,00.0,39.1,31.0,09.5,0000.0,0013.38,0005.58,0004.70
2021-10-17 00:13:00,,0833.1,5.00,0.00,29.8,26.1,00.0,39.0,31.1,09.7,0000.0,0012.86,0005.62,0004.70
2021-10-17 00:14:00,,0833.2,4.99,0.00,29.7,26.6,00.0,39.0,31.2,09.8,0000.0,0011.83,0005.54,0004.68
2021-10-17 00:15:00,,0833.1,5.01,0.00,29.7,27.1,00.0,39.0,31.3,09.9,0000.0,0011.40,0005.43,0004.63
2021-10-17 00:16:00,,0833.2,4.99,0.00,29.7,27.5,00.0,38.9,31.4,09.9,0000.0,0011.21,0005.33,0004.57
2021-10-17 00:17:00,,0833.2,5.00,0.00,29.7,27.9,00.0,38.9,31.5,09.9,0000.0,0011.27,0005.28,0004.51
2021-10-17 00:18:00,,0833.2,5.01,0.00,29.8,28.2,00.0,38.9,31.6,09.9,0000.0,0010.91,0005.19,0004.45
2021-10-17 00:19:00,,0833.2,5.00,0.00,29.8,28.4,00.0,38.9,31.6,09.9,0000.0,0010.55,0005.13,0004.37
2021-10-17 00:20:00,,0833.3,4.99,0.00,29.8,28.6,00.0,38.9,31.7,09.9,0000.0,0010.56,0005.10,0004.30
2021-10-17 00:21:00,,0833.3,5.01,0.00,29.9,28.7,00.0,38.9,31.7,09.8,0000.0,0010.24,0005.01,0004.23
2021-10-17 00:22:00,,0833.3,5.00,0.00,29.9,28.8,00.0,38.9,31.8,09.8,0000.0,0009.73,0004.88,0004.16
2021-10-17 00:23:00,,0833.3,4.99,0.00,29.9,28.9,00.0,38.9,31.8,09.8,0000.0,0009.87,0004.82,0004.09
2021-10-17 00:24:00,,0833.3,5.01,0.00,30.0,28.9,00.0,38.9,31.8,09.9,0000.0,0009.54,0004.74,0004.01
2021-10-17 00:25:00,,0833.3,4.99,0.00,30.0,29.0,00.0,39.0,31.9,09.9,0000.0,0010.08,0004.74,0003.97
2021-10-17 00:26:00,,0833.3,5.00,0.00,30.0,29.0,00.0,39.0,31.9,09.9,0000.0,0010.04,0004.73,0003.94
2021-10-17 00:27:00,,0833.3,5.01,0.00,30.1,29.1,00.0,39.0,31.9,09.9,0000.0,0010.57,0004.75,0003.91
2021-10-17 00:28:00,,0833.3,4.99,0.00,30.1,29.2,00.0,39.0,31.9,10.0,0000.0,0011.18,0004.73,0003.88
2021-10-17 00:29:00,,0833.4,4.98,0.00,30.1,29.2,00.0,39.0,32.0,09.9,0000.0,0011.56,0004.74,0003.84
2021-10-17 00:30:00,,0833.4,5.00,0.00,30.2,29.3,00.0,39.1,32.0,09.9,0000.0,0011.69,0004.71,0003.82
2021-10-17 00:31:00,,0833.5,5.00,0.00,30.2,29.3,00.0,39.1,32.0,09.8,0000.0,0011.89,0004.71,0003.81
2021-10-17 00:32:00,,0833.5,5.01,0.00,30.2,29.3,00.0,39.1,32.0,09.8,0000.0,0012.53,0004.71,0003.80
2021-10-17 00:33:00,,0833.4,5.01,0.00,30.2,29.4,00.0,39.1,32.0,09.8,0000.0,0013.14,0004.72,0003.77
2021-10-17 00:34:00,,0833.4,4.99,0.00,30.2,29.4,00.0,39.1,32.0,09.7,0000.0,0013.05,0004.73,0003.74
2021-10-17 00:35:00,,0833.4,5.00,0.00,30.3,29.5,00.0,39.2,32.0,09.7,0000.0,0013.08,0004.68,0003.72
2021-10-17 00:36:00,,0833.4,5.01,0.00,30.3,29.5,00.0,39.2,32.1,09.7,0000.0,0012.67,0004.64,0003.69
2021-10-17 00:37:00,,0833.4,4.99,0.00,30.3,29.5,00.0,39.2,32.1,09.6,0000.0,0013.34,0004.65,0003.69
2021-10-17 00:38:00,,0833.4,5.00,0.00,30.3,29.0,00.0,39.2,31.9,09.6,0000.0,0013.30,0004.64,0003.70
2021-10-17 00:39:00,,0833.4,5.01,0.00,30.1,26.8,00.0,39.2,31.4,09.7,0000.0,0013.01,0004.65,0003.72
2021-10-17 00:40:00,,0833.4,4.99,0.00,30.0,26.2,00.0,39.2,31.2,09.8,0000.0,0012.82,0004.64,0003.74
2021-10-17 00:41:00,,0833.4,5.00,0.00,29.9,26.5,00.0,39.1,31.2,09.8,0000.0,0012.56,0004.63,0003.77
2021-10-17 00:42:00,,0833.4,4.99,0.00,29.8,27.0,00.0,39.1,31.3,09.9,0000.0,0012.87,0004.64,0003.77
2021-10-17 00:43:00,,0833.5,5.00,0.00,29.8,27.4,00.0,39.0,31.4,09.9,0000.0,0012.73,0004.65,0003.78
2021-10-17 00:44:00,,0833.5,5.00,0.00,29.8,27.7,00.0,39.0,31.5,09.9,0000.0,0012.35,0004.67,0003.80
2021-10-17 00:45:00,,0833.5,5.01,0.00,29.8,28.0,00.0,39.0,31.5,09.9,0000.0,0012.50,0004.69,0003.81
2021-10-17 00:46:00,,0833.5,5.01,0.00,29.8,28.2,00.0,39.0,31.6,09.9,0000.0,0012.78,0004.74,0003.83
2021-10-17 00:47:00,,0833.5,4.98,0.00,29.9,28.4,00.0,39.0,31.6,09.8,0000.0,0013.09,0004.72,0003.84
2021-10-17 00:48:00,,0833.5,5.00,0.00,29.9,28.5,00.0,39.0,31.6,09.8,0000.0,0013.27,0004.69,0003.84
2021-10-17 00:49:00,,0833.5,5.00,0.00,29.9,28.7,00.0,39.0,31.6,09.8,0000.0,0013.83,0004.72,0003.84
2021-10-17 00:50:00,,0833.6,4.99,0.00,29.9,28.7,00.0,39.0,31.7,09.8,0000.0,0013.27,0004.73,0003.84
2021-10-17 00:51:00,,0833.5,5.01,0.00,29.9,28.8,00.0,39.0,31.7,09.8,0000.0,0013.07,0004.72,0003.84
2021-10-17 00:52:00,,0833.5,5.00,0.00,29.9,28.9,00.0,39.0,31.7,09.8,0000.0,0012.94,0004.71,0003.83
2021-10-17 00:53:00,,0833.5,4.99,0.00,29.9,29.0,00.0,39.0,31.7,09.8,0000.0,0012.64,0004.71,0003.82
2021-10-17 00:54:00,,0833.6,5.00,0.00,30.0,29.0,00.0,39.0,31.7,09.8,0000.0,0013.71,0004.72,0003.83
2021-10-17 00:55:00,,0833.6,4.99,0.00,30.0,29.1,00.0,39.0,31.7,09.8,0000.0,0013.90,0004.71,0003.83
2021-10-17 00:56:00,,0833.6,5.01,0.00,30.0,29.1,00.0,39.0,31.8,09.8,0000.0,0013.71,0004.67,0003.82
2021-10-17 00:57:00,,0833.6,5.00,0.00,30.0,29.1,00.0,39.0,31.8,09.8,0000.0,0012.96,0004.62,0003.82
2021-10-17 00:58:00,,0833.6,5.00,0.00,30.0,29.2,00.0,39.1,31.8,09.8,0000.0,0013.08,0004.65,0003.83
2021-10-17 00:59:00,,0833.6,5.00,0.00,30.1,29.2,00.0,39.1,31.9,09.8,0000.0,0012.59,0004.67,0003.84
